Location: Drouwen
(52.9559°N, 6.7974°E)
Time: 11:22:20
(UTC+00:00)

Geosat - Pass Details

Date: 15 May 2026
Orbit: 758 x 760 km, 108.0° (Epoch: 7 June)

Event Time Altitude Azimuth Distance (km) Brightness Sun altitude
Rises 22:24:44 0° 32° (NNE) 3,232 7.9 -16.7°
Reaches altitude 10° 22:27:01 10° 33° (NNE) 2,302 7.1 -16.8°
Maximum altitude 22:32:03 84° 121° (ESE) 772 3.9 -16.9°
Enters shadow 22:35:37 20° 210° (SSW) 1,724 5.4 -17.1°
